Time,TemperatureF,DewpointF,PressureIn,WindDirection,WindDirectionDegrees,WindSpeedMPH,WindSpeedGustMPH,Humidity,HourlyPrecipIn,Conditions,Clouds,dailyrainin,SoftwareType,DateUTC
2013-02-23 00:09:00,36.3,35.0,30.13,East,88,0.0,0.0,96,0.00,,,0.28,weatherlink.com 1.10,2013-02-23 05:09:00,
2013-02-23 00:24:00,36.3,35.0,30.13,East,88,0.0,2.0,96,0.00,,,0.28,weatherlink.com 1.10,2013-02-23 05:24:00,
2013-02-23 00:39:00,36.5,36.0,30.12,East,88,0.0,0.0,96,0.01,,,0.29,weatherlink.com 1.10,2013-02-23 05:39:00,
2013-02-23 00:54:00,36.5,36.0,30.12,East,88,0.0,0.0,96,0.01,,,0.29,weatherlink.com 1.10,2013-02-23 05:54:00,
2013-02-23 01:09:00,36.3,35.0,30.11,East,88,0.0,1.0,96,0.02,,,0.30,weatherlink.com 1.10,2013-02-23 06:09:00,
2013-02-23 01:24:00,36.3,35.0,30.09,East,80,1.0,1.0,96,0.02,,,0.30,weatherlink.com 1.10,2013-02-23 06:24:00,
2013-02-23 01:39:00,36.3,35.0,30.08,East,80,0.0,1.0,96,0.01,,,0.30,weatherlink.com 1.10,2013-02-23 06:39:00,
2013-02-23 01:54:00,36.3,35.0,30.08,East,88,0.0,2.0,96,0.01,,,0.30,weatherlink.com 1.10,2013-02-23 06:54:00,
2013-02-23 02:09:00,36.3,35.0,30.07,East,86,0.0,2.0,96,0.00,,,0.00,weatherlink.com 1.10,2013-02-23 07:09:00,
2013-02-23 02:24:00,36.3,35.0,30.05,East,86,0.0,1.0,96,0.00,,,0.00,weatherlink.com 1.10,2013-02-23 07:24:00,
2013-02-23 02:39:00,36.3,35.0,30.06,East,86,0.0,1.0,96,0.00,,,0.00,weatherlink.com 1.10,2013-02-23 07:39:00,
2013-02-23 02:54:00,36.5,36.0,30.05,East,86,0.0,0.0,96,0.00,,,0.00,weatherlink.com 1.10,2013-02-23 07:54:00,
2013-02-23 03:09:00,36.5,36.0,30.04,East,86,0.0,1.0,96,0.00,,,0.00,weatherlink.com 1.10,2013-02-23 08:09:00,
2013-02-23 03:24:00,36.5,36.0,30.04,East,86,0.0,0.0,96,0.00,,,0.00,weatherlink.com 1.10,2013-02-23 08:24:00,
2013-02-23 03:39:00,36.5,36.0,30.04,WNW,296,0.0,1.0,96,0.00,,,0.00,weatherlink.com 1.10,2013-02-23 08:39:00,
2013-02-23 03:54:00,36.6,36.0,30.05,NW,315,0.0,2.0,97,0.00,,,0.00,weatherlink.com 1.10,2013-02-23 08:54:00,
2013-02-23 04:09:00,36.6,36.0,30.04,NW,309,0.0,3.0,96,0.02,,,0.02,weatherlink.com 1.10,2013-02-23 09:09:00,
2013-02-23 04:24:00,36.5,36.0,30.02,NW,313,0.0,2.0,97,0.05,,,0.05,weatherlink.com 1.10,2013-02-23 09:24:00,
2013-02-23 04:39:00,36.6,36.0,30.02,ENE,75,0.0,0.0,97,0.06,,,0.06,weatherlink.com 1.10,2013-02-23 09:39:00,
2013-02-23 04:55:00,36.6,36.0,30.00,East,88,0.0,3.0,97,0.06,,,0.06,weatherlink.com 1.10,2013-02-23 09:55:00,
2013-02-23 05:09:00,36.5,36.0,30.01,East,89,0.0,1.0,96,0.05,,,0.07,weatherlink.com 1.10,2013-02-23 10:09:00,
2013-02-23 05:24:00,36.5,36.0,30.01,East,89,0.0,0.0,97,0.03,,,0.08,weatherlink.com 1.10,2013-02-23 10:24:00,
2013-02-23 05:39:00,36.5,36.0,30.01,NNE,26,0.0,1.0,96,0.03,,,0.09,weatherlink.com 1.10,2013-02-23 10:39:00,
2013-02-23 05:55:00,36.5,36.0,30.00,ENE,78,0.0,2.0,97,0.05,,,0.11,weatherlink.com 1.10,2013-02-23 10:55:00,
2013-02-23 06:10:00,36.3,35.0,29.96,East,90,0.0,2.0,96,0.06,,,0.13,weatherlink.com 1.10,2013-02-23 11:10:00,
2013-02-23 06:25:00,36.3,35.0,29.97,ESE,107,0.0,2.0,96,0.07,,,0.15,weatherlink.com 1.10,2013-02-23 11:25:00,
2013-02-23 06:40:00,36.3,35.0,29.98,ESE,107,0.0,2.0,96,0.08,,,0.17,weatherlink.com 1.10,2013-02-23 11:40:00,
2013-02-23 06:55:00,36.3,35.0,29.97,ESE,105,0.0,2.0,96,0.08,,,0.19,weatherlink.com 1.10,2013-02-23 11:55:00,
2013-02-23 07:10:00,36.3,35.0,29.99,ESE,105,0.0,0.0,96,0.09,,,0.22,weatherlink.com 1.10,2013-02-23 12:10:00,
2013-02-23 07:25:00,36.5,36.0,30.00,WSW,248,0.0,0.0,97,0.11,,,0.27,weatherlink.com 1.10,2013-02-23 12:25:00,
2013-02-23 07:40:00,36.6,36.0,29.97,WSW,248,1.0,1.0,97,0.13,,,0.30,weatherlink.com 1.10,2013-02-23 12:40:00,
2013-02-23 07:55:00,36.6,36.0,29.98,ENE,76,0.0,2.0,97,0.12,,,0.31,weatherlink.com 1.10,2013-02-23 12:55:00,
2013-02-23 08:10:00,36.8,36.0,29.99,West,279,0.0,2.0,97,0.09,,,0.31,weatherlink.com 1.10,2013-02-23 13:10:00,
2013-02-23 08:25:00,36.9,36.0,30.00,South,173,0.0,0.0,97,0.05,,,0.32,weatherlink.com 1.10,2013-02-23 13:25:00,
2013-02-23 08:40:00,36.9,36.0,30.00,NW,326,0.0,2.0,97,0.02,,,0.32,weatherlink.com 1.10,2013-02-23 13:40:00,
2013-02-23 08:55:00,37.0,36.0,29.98,WNW,297,2.0,2.0,97,0.01,,,0.32,weatherlink.com 1.10,2013-02-23 13:55:00,
2013-02-23 09:10:00,37.2,37.0,29.98,ENE,69,0.0,1.0,97,0.01,,,0.32,weatherlink.com 1.10,2013-02-23 14:10:00,
2013-02-23 09:25:00,37.2,37.0,30.00,NW,306,0.0,2.0,97,0.00,,,0.32,weatherlink.com 1.10,2013-02-23 14:25:00,
2013-02-23 09:40:00,37.2,37.0,30.00,NW,313,0.0,1.0,97,0.00,,,0.32,weatherlink.com 1.10,2013-02-23 14:40:00,
2013-02-23 09:55:00,37.5,37.0,29.98,North,5,0.0,1.0,97,0.01,,,0.33,weatherlink.com 1.10,2013-02-23 14:55:00,
2013-02-23 10:10:00,37.8,37.0,29.98,NE,50,0.0,2.0,97,0.02,,,0.34,weatherlink.com 1.10,2013-02-23 15:10:00,
2013-02-23 10:25:00,38.0,37.0,29.98,NE,49,0.0,1.0,97,0.02,,,0.34,weatherlink.com 1.10,2013-02-23 15:25:00,
2013-02-23 10:40:00,38.3,38.0,29.97,NE,49,0.0,1.0,97,0.02,,,0.34,weatherlink.com 1.10,2013-02-23 15:40:00,
2013-02-23 10:55:00,38.5,38.0,29.98,NE,49,0.0,0.0,97,0.01,,,0.34,weatherlink.com 1.10,2013-02-23 15:55:00,
2013-02-23 11:10:00,38.6,38.0,29.98,NNW,337,0.0,1.0,97,0.01,,,0.35,weatherlink.com 1.10,2013-02-23 16:10:00,
2013-02-23 11:25:00,38.8,38.0,29.98,NNW,338,0.0,0.0,97,0.02,,,0.36,weatherlink.com 1.10,2013-02-23 16:25:00,
2013-02-23 11:40:00,39.1,38.0,29.97,NW,311,0.0,1.0,97,0.02,,,0.36,weatherlink.com 1.10,2013-02-23 16:40:00,
2013-02-23 11:55:00,39.3,39.0,29.96,NNW,340,0.0,1.0,97,0.03,,,0.37,weatherlink.com 1.10,2013-02-23 16:55:00,
2013-02-23 12:10:00,39.6,39.0,29.96,North,11,0.0,2.0,97,0.02,,,0.37,weatherlink.com 1.10,2013-02-23 17:10:00,
2013-02-23 12:25:00,39.8,39.0,29.97,NNE,24,0.0,1.0,97,0.02,,,0.38,weatherlink.com 1.10,2013-02-23 17:25:00,
2013-02-23 12:40:00,39.9,39.0,29.96,WNW,300,0.0,3.0,96,0.03,,,0.39,weatherlink.com 1.10,2013-02-23 17:40:00,
2013-02-23 12:55:00,40.3,39.0,29.96,WNW,302,0.0,1.0,96,0.02,,,0.39,weatherlink.com 1.10,2013-02-23 17:55:00,
2013-02-23 13:10:00,40.6,40.0,29.95,East,88,0.0,1.0,97,0.03,,,0.40,weatherlink.com 1.10,2013-02-23 18:10:00,
2013-02-23 13:25:00,40.5,40.0,29.93,East,94,2.0,2.0,96,0.02,,,0.40,weatherlink.com 1.10,2013-02-23 18:25:00,
2013-02-23 13:40:00,40.8,40.0,29.93,NW,305,0.0,3.0,96,0.01,,,0.40,weatherlink.com 1.10,2013-02-23 18:40:00,
2013-02-23 13:55:00,41.3,40.0,29.91,NW,306,0.0,1.0,96,0.01,,,0.40,weatherlink.com 1.10,2013-02-23 18:55:00,
2013-02-23 14:10:00,41.3,40.0,29.90,East,82,0.0,2.0,96,0.00,,,0.40,weatherlink.com 1.10,2013-02-23 19:10:00,
2013-02-23 14:25:00,41.2,40.0,29.91,East,81,0.0,1.0,96,0.00,,,0.40,weatherlink.com 1.10,2013-02-23 19:25:00,
2013-02-23 14:40:00,41.5,40.0,29.91,East,81,0.0,1.0,95,0.00,,,0.40,weatherlink.com 1.10,2013-02-23 19:40:00,
2013-02-23 14:55:00,41.5,41.0,29.90,East,80,0.0,0.0,96,0.00,,,0.40,weatherlink.com 1.10,2013-02-23 19:55:00,
2013-02-23 15:10:00,41.8,41.0,29.91,WNW,291,0.0,2.0,95,0.00,,,0.40,weatherlink.com 1.10,2013-02-23 20:10:00,
2013-02-23 15:25:00,41.9,41.0,29.90,North,360,0.0,2.0,95,0.00,,,0.40,weatherlink.com 1.10,2013-02-23 20:25:00,
2013-02-23 15:40:00,41.9,41.0,29.90,NE,35,0.0,2.0,95,0.00,,,0.40,weatherlink.com 1.10,2013-02-23 20:40:00,
2013-02-23 15:55:00,42.2,41.0,29.90,NE,35,0.0,0.0,95,0.00,,,0.40,weatherlink.com 1.10,2013-02-23 20:55:00,
2013-02-23 16:10:00,42.3,41.0,29.90,NNE,27,1.0,2.0,95,0.00,,,0.40,weatherlink.com 1.10,2013-02-23 21:10:00,
2013-02-23 16:25:00,42.3,41.0,29.90,SSW,211,1.0,1.0,95,0.00,,,0.40,weatherlink.com 1.10,2013-02-23 21:25:00,
2013-02-23 16:40:00,42.5,41.0,29.89,East,86,0.0,2.0,95,0.00,,,0.40,weatherlink.com 1.10,2013-02-23 21:40:00,
2013-02-23 16:55:00,42.6,41.0,29.88,NE,44,0.0,0.0,95,0.00,,,0.40,weatherlink.com 1.10,2013-02-23 21:55:00,
2013-02-23 17:10:00,42.6,41.0,29.87,ENE,67,0.0,0.0,95,0.00,,,0.40,weatherlink.com 1.10,2013-02-23 22:10:00,
2013-02-23 17:25:00,42.6,41.0,29.88,ENE,67,0.0,0.0,95,0.00,,,0.40,weatherlink.com 1.10,2013-02-23 22:25:00,
2013-02-23 17:40:00,42.8,42.0,29.87,ENE,67,0.0,0.0,95,0.00,,,0.40,weatherlink.com 1.10,2013-02-23 22:40:00,
2013-02-23 17:55:00,42.8,42.0,29.87,ENE,67,0.0,0.0,95,0.00,,,0.40,weatherlink.com 1.10,2013-02-23 22:55:00,
2013-02-23 18:10:00,42.6,41.0,29.86,ENE,67,0.0,0.0,95,0.00,,,0.40,weatherlink.com 1.10,2013-02-23 23:10:00,
2013-02-23 18:25:00,42.6,41.0,29.86,ENE,67,0.0,0.0,95,0.00,,,0.40,weatherlink.com 1.10,2013-02-23 23:25:00,
2013-02-23 18:40:00,42.8,42.0,29.86,ENE,67,0.0,0.0,95,0.00,,,0.40,weatherlink.com 1.10,2013-02-23 23:40:00,
2013-02-23 18:55:00,42.8,42.0,29.87,ENE,68,0.0,1.0,95,0.00,,,0.40,weatherlink.com 1.10,2013-02-23 23:55:00,
2013-02-23 19:10:00,42.8,42.0,29.87,ENE,68,0.0,0.0,95,0.00,,,0.40,weatherlink.com 1.10,2013-02-24 00:10:00,
2013-02-23 19:25:00,42.8,42.0,29.87,ENE,68,0.0,0.0,95,0.00,,,0.40,weatherlink.com 1.10,2013-02-24 00:25:00,
2013-02-23 19:40:00,42.8,42.0,29.89,ENE,68,0.0,0.0,96,0.00,,,0.40,weatherlink.com 1.10,2013-02-24 00:40:00,
2013-02-23 19:55:00,42.8,42.0,29.88,ENE,68,0.0,1.0,96,0.00,,,0.40,weatherlink.com 1.10,2013-02-24 00:55:00,
2013-02-23 20:10:00,42.8,42.0,29.88,ENE,68,0.0,0.0,96,0.00,,,0.40,weatherlink.com 1.10,2013-02-24 01:10:00,
2013-02-23 20:25:00,42.9,42.0,29.88,ENE,68,0.0,0.0,96,0.00,,,0.40,weatherlink.com 1.10,2013-02-24 01:25:00,
2013-02-23 20:40:00,42.9,42.0,29.88,ENE,68,0.0,0.0,96,0.00,,,0.40,weatherlink.com 1.10,2013-02-24 01:40:00,
2013-02-23 20:55:00,42.9,42.0,29.86,ENE,68,0.0,0.0,96,0.00,,,0.40,weatherlink.com 1.10,2013-02-24 01:55:00,
2013-02-23 21:10:00,42.8,42.0,29.85,East,94,0.0,1.0,96,0.00,,,0.40,weatherlink.com 1.10,2013-02-24 02:10:00,
2013-02-23 21:25:00,42.8,42.0,29.85,East,94,0.0,0.0,96,0.00,,,0.40,weatherlink.com 1.10,2013-02-24 02:25:00,
2013-02-23 21:40:00,42.6,42.0,29.85,East,94,0.0,0.0,96,0.00,,,0.40,weatherlink.com 1.10,2013-02-24 02:40:00,
2013-02-23 21:55:00,42.6,42.0,29.87,East,94,0.0,0.0,96,0.00,,,0.40,weatherlink.com 1.10,2013-02-24 02:55:00,
2013-02-23 22:10:00,42.8,42.0,29.87,East,94,0.0,0.0,96,0.00,,,0.40,weatherlink.com 1.10,2013-02-24 03:10:00,
2013-02-23 22:25:00,42.8,42.0,29.86,East,94,0.0,0.0,96,0.00,,,0.40,weatherlink.com 1.10,2013-02-24 03:25:00,
2013-02-23 22:40:00,42.8,42.0,29.85,East,94,0.0,0.0,96,0.00,,,0.40,weatherlink.com 1.10,2013-02-24 03:40:00,
2013-02-23 22:55:00,42.8,42.0,29.84,East,94,0.0,0.0,96,0.00,,,0.40,weatherlink.com 1.10,2013-02-24 03:55:00,
2013-02-23 23:11:00,42.8,42.0,29.86,ESE,117,0.0,1.0,96,0.00,,,0.40,weatherlink.com 1.10,2013-02-24 04:11:00,
2013-02-23 23:26:00,42.8,42.0,29.87,South,188,0.0,3.0,96,0.00,,,0.40,weatherlink.com 1.10,2013-02-24 04:26:00,
2013-02-23 23:41:00,42.8,42.0,29.85,South,188,0.0,1.0,96,0.00,,,0.40,weatherlink.com 1.10,2013-02-24 04:41:00,
2013-02-23 23:56:00,42.6,42.0,29.85,South,188,0.0,0.0,97,0.00,,,0.40,weatherlink.com 1.10,2013-02-24 04:56:00,